owner,sensor,date,latitude,longitude,vertical_datum,sea_water_practical_salinity,qcFlag 
TABS,ioos:station:wmo:42048:1,2014-01-14T17:00:00Z,27.9396,-96.8429,2.0,31.5484,11111222 
TABS,ioos:station:wmo:42048:1,2014-01-14T17:30:00Z,27.9396,-96.8429,2.0,31.5972,11111222 
TABS,ioos:station:wmo:42048:1,2014-01-14T18:00:00Z,27.9396,-96.8429,2.0,31.639,11111222 
TABS,ioos:station:wmo:42048:1,2014-01-14T18:30:00Z,27.9396,-96.8429,2.0,31.5679,11111222 
TABS,ioos:station:wmo:42048:1,2014-01-14T19:00:00Z,27.9396,-96.8429,2.0,31.5998,11111222 
TABS,ioos:station:wmo:42048:1,2014-01-14T19:30:00Z,27.9396,-96.8429,2.0,31.6339,11111222 
TABS,ioos:station:wmo:42048:1,2014-01-14T20:00:00Z,27.9396,-96.8429,2.0,31.6089,11111222 
TABS,ioos:station:wmo:42048:1,2014-01-14T20:30:00Z,27.9396,-96.8429,2.0,31.6217,11111222 
TABS,ioos:station:wmo:42048:1,2014-01-14T21:00:00Z,27.9396,-96.8429,2.0,31.6527,11111222 
TABS,ioos:station:wmo:42048:1,2014-01-14T21:30:00Z,27.9396,-96.8429,2.0,31.6087,11111222 
TABS,ioos:station:wmo:42048:1,2014-01-14T22:00:00Z,27.9396,-96.8429,2.0,31.5945,11111222 
TABS,ioos:station:wmo:42048:1,2014-01-14T22:30:00Z,27.9396,-96.8429,2.0,31.5709,11111222 
TABS,ioos:station:wmo:42048:1,2014-01-14T23:00:00Z,27.9396,-96.8429,2.0,31.5999,11111222 
TABS,ioos:station:wmo:42048:1,2014-01-14T23:30:00Z,27.9396,-96.8429,2.0,31.624,11111222 
TABS,ioos:station:wmo:42048:1,2014-01-15T00:00:00Z,27.9396,-96.8429,2.0,31.5655,11111222 
TABS,ioos:station:wmo:42048:1,2014-01-15T00:30:00Z,27.9396,-96.8429,2.0,31.4663,11111222 
TABS,ioos:station:wmo:42048:1,2014-01-15T11:00:00Z,27.9396,-96.8429,2.0,0.0059,11111222 
TABS,ioos:station:wmo:42048:1,2014-01-15T11:30:00Z,27.9396,-96.8429,2.0,0.0058,11111222 
TABS,ioos:station:wmo:42048:1,2014-01-15T12:00:00Z,27.9396,-96.8429,2.0,0.0054,11111222 
TABS,ioos:station:wmo:42048:1,2014-01-15T12:30:00Z,27.9396,-96.8429,2.0,0.005,11111222 
TABS,ioos:station:wmo:42048:1,2014-01-15T13:00:00Z,27.9396,-96.8429,2.0,0.0046,11111222 
TABS,ioos:station:wmo:42048:1,2014-01-15T13:30:00Z,27.9396,-96.8429,2.0,0.0049,11111222 
TABS,ioos:station:wmo:42048:1,2014-01-15T14:00:00Z,27.9396,-96.8429,2.0,0.0046,11111222 
TABS,ioos:station:wmo:42048:1,2014-01-15T14:30:00Z,27.9396,-96.8429,2.0,0.0049,11111222 
TABS,ioos:station:wmo:42048:1,2014-01-15T15:00:00Z,27.9396,-96.8429,2.0,0.0061,11111222 
TABS,ioos:station:wmo:42048:1,2014-01-15T15:30:00Z,27.9396,-96.8429,2.0,0.0063,11111222 
TABS,ioos:station:wmo:42048:1,2014-01-15T16:00:00Z,27.9396,-96.8429,2.0,0.0062,11111222 
TABS,ioos:station:wmo:42048:1,2014-01-15T16:30:00Z,27.9396,-96.8429,2.0,0.0069,11111222 
TABS,ioos:station:wmo:42048:1,2014-01-15T17:00:00Z,27.9396,-96.8429,2.0,0.007,11111222 
TABS,ioos:station:wmo:42048:1,2014-01-15T17:30:00Z,27.9396,-96.8429,2.0,0.0088,11111222 
TABS,ioos:station:wmo:42048:1,2014-01-15T18:00:00Z,27.9396,-96.8429,2.0,0.0107,11111222 
TABS,ioos:station:wmo:42048:1,2014-01-15T18:30:00Z,27.9396,-96.8429,2.0,0.0115,11111222 
TABS,ioos:station:wmo:42048:1,2014-01-15T19:00:00Z,27.9396,-96.8429,2.0,0.0115,11111222 
TABS,ioos:station:wmo:42048:1,2014-01-15T19:30:00Z,27.9396,-96.8429,2.0,0.0081,11111222 
TABS,ioos:station:wmo:42048:1,2014-01-15T20:00:00Z,27.9396,-96.8429,2.0,32.2797,11111222 
TABS,ioos:station:wmo:42048:1,2014-01-15T20:30:00Z,27.9396,-96.8429,2.0,32.2253,11111222 
TABS,ioos:station:wmo:42048:1,2014-01-15T21:00:00Z,27.9396,-96.8429,2.0,32.1754,11111222 
TABS,ioos:station:wmo:42048:1,2014-01-15T21:30:00Z,27.9396,-96.8429,2.0,32.1073,11111222 
TABS,ioos:station:wmo:42048:1,2014-01-15T22:00:00Z,27.9396,-96.8429,2.0,32.0643,11111222 
TABS,ioos:station:wmo:42048:1,2014-01-15T22:30:00Z,27.9396,-96.8429,2.0,32.0582,11111222 
TABS,ioos:station:wmo:42048:1,2014-01-15T23:00:00Z,27.9396,-96.8429,2.0,32.0234,11111222 
TABS,ioos:station:wmo:42048:1,2014-01-15T23:30:00Z,27.9396,-96.8429,2.0,32.0079,11111222 
TABS,ioos:station:wmo:42048:1,2014-01-16T00:00:00Z,27.9396,-96.8429,2.0,32.0027,11111222 
TABS,ioos:station:wmo:42048:1,2014-01-16T00:30:00Z,27.9396,-96.8429,2.0,31.991,11111222 
TABS,ioos:station:wmo:42048:1,2014-01-16T01:00:00Z,27.9396,-96.8429,2.0,31.9936,11111222 
TABS,ioos:station:wmo:42048:1,2014-01-16T01:30:00Z,27.9396,-96.8429,2.0,32.001,11111222 
TABS,ioos:station:wmo:42048:1,2014-01-16T02:00:00Z,27.9396,-96.8429,2.0,32.0069,11111222 
TABS,ioos:station:wmo:42048:1,2014-01-16T02:30:00Z,27.9396,-96.8429,2.0,32.0247,11111222 
TABS,ioos:station:wmo:42048:1,2014-01-16T03:00:00Z,27.9396,-96.8429,2.0,32.033,11111222 
TABS,ioos:station:wmo:42048:1,2014-01-16T03:30:00Z,27.9396,-96.8429,2.0,32.0516,11111222 
TABS,ioos:station:wmo:42048:1,2014-01-16T04:00:00Z,27.9396,-96.8429,2.0,32.0652,11111222 
TABS,ioos:station:wmo:42048:1,2014-01-16T04:30:00Z,27.9396,-96.8429,2.0,32.096,11111222 
TABS,ioos:station:wmo:42048:1,2014-01-16T05:00:00Z,27.9396,-96.8429,2.0,32.0938,11111222 
TABS,ioos:station:wmo:42048:1,2014-01-16T05:30:00Z,27.9396,-96.8429,2.0,32.0976,11111222 
TABS,ioos:station:wmo:42048:1,2014-01-16T06:00:00Z,27.9396,-96.8429,2.0,32.0924,11111222 
TABS,ioos:station:wmo:42048:1,2014-01-16T06:30:00Z,27.9396,-96.8429,2.0,32.1016,11111222 
TABS,ioos:station:wmo:42048:1,2014-01-16T07:00:00Z,27.9396,-96.8429,2.0,32.1055,11111222 
TABS,ioos:station:wmo:42048:1,2014-01-16T07:30:00Z,27.9396,-96.8429,2.0,32.1104,11111222 
TABS,ioos:station:wmo:42048:1,2014-01-16T08:00:00Z,27.9396,-96.8429,2.0,32.1178,11111222 
TABS,ioos:station:wmo:42048:1,2014-01-16T08:30:00Z,27.9396,-96.8429,2.0,32.1309,11111222 
TABS,ioos:station:wmo:42048:1,2014-01-16T09:00:00Z,27.9396,-96.8429,2.0,32.1378,11111222 
TABS,ioos:station:wmo:42048:1,2014-01-16T09:30:00Z,27.9396,-96.8429,2.0,32.1465,11111222 
TABS,ioos:station:wmo:42048:1,2014-01-16T10:00:00Z,27.9396,-96.8429,2.0,32.1648,11111222 
TABS,ioos:station:wmo:42048:1,2014-01-16T10:30:00Z,27.9396,-96.8429,2.0,32.1903,11111222 
TABS,ioos:station:wmo:42048:1,2014-01-16T11:00:00Z,27.9396,-96.8429,2.0,32.1973,11111222 
TABS,ioos:station:wmo:42048:1,2014-01-16T11:30:00Z,27.9396,-96.8429,2.0,32.1923,11111222 
TABS,ioos:station:wmo:42048:1,2014-01-16T12:00:00Z,27.9396,-96.8429,2.0,32.1904,11111222 
TABS,ioos:station:wmo:42048:1,2014-01-16T12:30:00Z,27.9396,-96.8429,2.0,32.1965,11111222 
TABS,ioos:station:wmo:42048:1,2014-01-16T13:00:00Z,27.9396,-96.8429,2.0,32.2188,11111222 
TABS,ioos:station:wmo:42048:1,2014-01-16T13:30:00Z,27.9396,-96.8429,2.0,32.2396,11111222 
TABS,ioos:station:wmo:42048:1,2014-01-16T14:00:00Z,27.9396,-96.8429,2.0,32.2585,11111222 
TABS,ioos:station:wmo:42048:1,2014-01-16T14:30:00Z,27.9396,-96.8429,2.0,32.2727,11111222 
TABS,ioos:station:wmo:42048:1,2014-01-16T15:00:00Z,27.9396,-96.8429,2.0,32.28,11111222 
TABS,ioos:station:wmo:42048:1,2014-01-16T15:30:00Z,27.9396,-96.8429,2.0,32.3039,11111222 
TABS,ioos:station:wmo:42048:1,2014-01-16T16:00:00Z,27.9396,-96.8429,2.0,32.3102,11111222 
TABS,ioos:station:wmo:42048:1,2014-01-16T16:30:00Z,27.9396,-96.8429,2.0,32.3371,11111222 
TABS,ioos:station:wmo:42048:1,2014-01-16T17:00:00Z,27.9396,-96.8429,2.0,32.3614,11111222 
TABS,ioos:station:wmo:42048:1,2014-01-16T17:30:00Z,27.9396,-96.8429,2.0,32.2565,11111222 
TABS,ioos:station:wmo:42048:1,2014-01-16T18:00:00Z,27.9396,-96.8429,2.0,32.2214,11111222 
TABS,ioos:station:wmo:42048:1,2014-01-16T18:30:00Z,27.9396,-96.8429,2.0,32.1897,11111222 
TABS,ioos:station:wmo:42048:1,2014-01-16T19:00:00Z,27.9396,-96.8429,2.0,32.1288,11111222 
TABS,ioos:station:wmo:42048:1,2014-01-16T19:30:00Z,27.9396,-96.8429,2.0,32.052,11111222 
TABS,ioos:station:wmo:42048:1,2014-01-16T20:00:00Z,27.9396,-96.8429,2.0,32.0297,11111222 
TABS,ioos:station:wmo:42048:1,2014-01-16T20:30:00Z,27.9396,-96.8429,2.0,32.0335,11111222 
TABS,ioos:station:wmo:42048:1,2014-01-16T21:00:00Z,27.9396,-96.8429,2.0,32.0828,11111222 
TABS,ioos:station:wmo:42048:1,2014-01-16T21:30:00Z,27.9396,-96.8429,2.0,32.1261,11111222 
TABS,ioos:station:wmo:42048:1,2014-01-16T22:00:00Z,27.9396,-96.8429,2.0,32.0269,11111222 
TABS,ioos:station:wmo:42048:1,2014-01-16T22:30:00Z,27.9396,-96.8429,2.0,32.0273,11111222 
TABS,ioos:station:wmo:42048:1,2014-01-16T23:00:00Z,27.9396,-96.8429,2.0,31.9896,11111222 
TABS,ioos:station:wmo:42048:1,2014-01-16T23:30:00Z,27.9396,-96.8429,2.0,31.9895,11111222 
TABS,ioos:station:wmo:42048:1,2014-01-17T00:00:00Z,27.9396,-96.8429,2.0,31.9489,11111222 
TABS,ioos:station:wmo:42048:1,2014-01-17T00:30:00Z,27.9396,-96.8429,2.0,31.9615,11111222 
TABS,ioos:station:wmo:42048:1,2014-01-17T01:00:00Z,27.9396,-96.8429,2.0,31.982,11111222 
TABS,ioos:station:wmo:42048:1,2014-01-17T01:30:00Z,27.9396,-96.8429,2.0,32.0552,11111222 
TABS,ioos:station:wmo:42048:1,2014-01-17T02:00:00Z,27.9396,-96.8429,2.0,32.0644,11111222 
TABS,ioos:station:wmo:42048:1,2014-01-17T02:30:00Z,27.9396,-96.8429,2.0,32.0563,11111222 
TABS,ioos:station:wmo:42048:1,2014-01-17T03:00:00Z,27.9396,-96.8429,2.0,32.2024,11111222 
TABS,ioos:station:wmo:42048:1,2014-01-17T03:30:00Z,27.9396,-96.8429,2.0,32.094,11111222 
TABS,ioos:station:wmo:42048:1,2014-01-17T04:00:00Z,27.9396,-96.8429,2.0,32.178,11111222 
TABS,ioos:station:wmo:42048:1,2014-01-17T04:30:00Z,27.9396,-96.8429,2.0,32.3955,11111222 
TABS,ioos:station:wmo:42048:1,2014-01-17T05:00:00Z,27.9396,-96.8429,2.0,32.4027,11111222 
TABS,ioos:station:wmo:42048:1,2014-01-17T05:30:00Z,27.9396,-96.8429,2.0,32.386,11111222 
TABS,ioos:station:wmo:42048:1,2014-01-17T06:00:00Z,27.9396,-96.8429,2.0,32.3689,11111222 
TABS,ioos:station:wmo:42048:1,2014-01-17T06:30:00Z,27.9396,-96.8429,2.0,32.3612,11111222 
TABS,ioos:station:wmo:42048:1,2014-01-17T07:00:00Z,27.9396,-96.8429,2.0,32.3526,11111222 
TABS,ioos:station:wmo:42048:1,2014-01-17T07:30:00Z,27.9396,-96.8429,2.0,32.3484,11111222 
TABS,ioos:station:wmo:42048:1,2014-01-17T08:00:00Z,27.9396,-96.8429,2.0,32.3316,11111222 
TABS,ioos:station:wmo:42048:1,2014-01-17T08:30:00Z,27.9396,-96.8429,2.0,32.3275,11111222 
TABS,ioos:station:wmo:42048:1,2014-01-17T09:00:00Z,27.9396,-96.8429,2.0,32.2979,11111222 
TABS,ioos:station:wmo:42048:1,2014-01-17T09:30:00Z,27.9396,-96.8429,2.0,32.2674,11111222 
TABS,ioos:station:wmo:42048:1,2014-01-17T10:00:00Z,27.9396,-96.8429,2.0,32.2543,11111222 
TABS,ioos:station:wmo:42048:1,2014-01-17T10:30:00Z,27.9396,-96.8429,2.0,32.2051,11111222 
TABS,ioos:station:wmo:42048:1,2014-01-17T11:00:00Z,27.9396,-96.8429,2.0,32.1911,11111222 
TABS,ioos:station:wmo:42048:1,2014-01-17T11:30:00Z,27.9396,-96.8429,2.0,32.1426,11111222 
TABS,ioos:station:wmo:42048:1,2014-01-17T12:00:00Z,27.9396,-96.8429,2.0,32.1079,11111222 
TABS,ioos:station:wmo:42048:1,2014-01-17T12:30:00Z,27.9396,-96.8429,2.0,32.1074,11111222 
TABS,ioos:station:wmo:42048:1,2014-01-17T13:00:00Z,27.9396,-96.8429,2.0,32.1011,11111222 
TABS,ioos:station:wmo:42048:1,2014-01-17T13:30:00Z,27.9396,-96.8429,2.0,32.1092,11111222 
TABS,ioos:station:wmo:42048:1,2014-01-17T14:00:00Z,27.9396,-96.8429,2.0,32.0833,11111222 
TABS,ioos:station:wmo:42048:1,2014-01-17T14:30:00Z,27.9396,-96.8429,2.0,32.0999,11111222 
TABS,ioos:station:wmo:42048:1,2014-01-17T15:00:00Z,27.9396,-96.8429,2.0,32.0883,11111222 
TABS,ioos:station:wmo:42048:1,2014-01-17T15:30:00Z,27.9396,-96.8429,2.0,32.0799,11111222 
TABS,ioos:station:wmo:42048:1,2014-01-17T16:00:00Z,27.9396,-96.8429,2.0,32.0768,11111222 
TABS,ioos:station:wmo:42048:1,2014-01-17T16:30:00Z,27.9396,-96.8429,2.0,32.0478,11111222 
TABS,ioos:station:wmo:42048:1,2014-01-17T17:00:00Z,27.9396,-96.8429,2.0,31.9864,11111222 
TABS,ioos:station:wmo:42048:1,2014-01-17T17:30:00Z,27.9396,-96.8429,2.0,31.9488,11111222 
TABS,ioos:station:wmo:42048:1,2014-01-17T18:00:00Z,27.9396,-96.8429,2.0,31.9206,11111222 
TABS,ioos:station:wmo:42048:1,2014-01-17T18:30:00Z,27.9396,-96.8429,2.0,31.8893,11111222 
TABS,ioos:station:wmo:42048:1,2014-01-17T19:00:00Z,27.9396,-96.8429,2.0,31.8431,11111222 
TABS,ioos:station:wmo:42048:1,2014-01-17T19:30:00Z,27.9396,-96.8429,2.0,31.827,11111222 
TABS,ioos:station:wmo:42048:1,2014-01-17T20:00:00Z,27.9396,-96.8429,2.0,31.8235,11111222 
TABS,ioos:station:wmo:42048:1,2014-01-17T20:30:00Z,27.9396,-96.8429,2.0,31.8198,11111222 
TABS,ioos:station:wmo:42048:1,2014-01-17T21:00:00Z,27.9396,-96.8429,2.0,31.8185,11111222 
TABS,ioos:station:wmo:42048:1,2014-01-17T21:30:00Z,27.9396,-96.8429,2.0,31.81,11111222 
TABS,ioos:station:wmo:42048:1,2014-01-17T22:00:00Z,27.9396,-96.8429,2.0,31.7952,11111222 
TABS,ioos:station:wmo:42048:1,2014-01-17T22:30:00Z,27.9396,-96.8429,2.0,31.7928,11111222 
TABS,ioos:station:wmo:42048:1,2014-01-17T23:00:00Z,27.9396,-96.8429,2.0,31.8014,11111222 
TABS,ioos:station:wmo:42048:1,2014-01-17T23:30:00Z,27.9396,-96.8429,2.0,31.8167,11111222 
TABS,ioos:station:wmo:42048:1,2014-01-18T00:00:00Z,27.9396,-96.8429,2.0,31.8442,11111222 
TABS,ioos:station:wmo:42048:1,2014-01-18T00:30:00Z,27.9396,-96.8429,2.0,31.8745,11111222 
TABS,ioos:station:wmo:42048:1,2014-01-18T01:00:00Z,27.9396,-96.8429,2.0,31.8924,11111222 
TABS,ioos:station:wmo:42048:1,2014-01-18T01:30:00Z,27.9396,-96.8429,2.0,31.8913,11111222 
TABS,ioos:station:wmo:42048:1,2014-01-18T02:00:00Z,27.9396,-96.8429,2.0,31.931,11111222 
TABS,ioos:station:wmo:42048:1,2014-01-18T02:30:00Z,27.9396,-96.8429,2.0,31.9157,11111222 
TABS,ioos:station:wmo:42048:1,2014-01-18T03:00:00Z,27.9396,-96.8429,2.0,31.9061,11111222 
TABS,ioos:station:wmo:42048:1,2014-01-18T03:30:00Z,27.9396,-96.8429,2.0,31.9268,11111222 
TABS,ioos:station:wmo:42048:1,2014-01-18T04:00:00Z,27.9396,-96.8429,2.0,31.9039,11111222 
TABS,ioos:station:wmo:42048:1,2014-01-18T04:30:00Z,27.9396,-96.8429,2.0,31.9144,11111222 
TABS,ioos:station:wmo:42048:1,2014-01-18T05:00:00Z,27.9396,-96.8429,2.0,31.8981,11111222 
TABS,ioos:station:wmo:42048:1,2014-01-18T05:30:00Z,27.9396,-96.8429,2.0,31.8858,11111222 
TABS,ioos:station:wmo:42048:1,2014-01-18T06:00:00Z,27.9396,-96.8429,2.0,31.8804,11111222 
TABS,ioos:station:wmo:42048:1,2014-01-18T06:30:00Z,27.9396,-96.8429,2.0,31.8941,11111222 
TABS,ioos:station:wmo:42048:1,2014-01-18T07:00:00Z,27.9396,-96.8429,2.0,31.8877,11111222 
TABS,ioos:station:wmo:42048:1,2014-01-18T07:30:00Z,27.9396,-96.8429,2.0,31.8953,11111222 
TABS,ioos:station:wmo:42048:1,2014-01-18T08:00:00Z,27.9396,-96.8429,2.0,31.9223,11111222 
TABS,ioos:station:wmo:42048:1,2014-01-18T08:30:00Z,27.9396,-96.8429,2.0,31.9291,11111222 
TABS,ioos:station:wmo:42048:1,2014-01-18T09:00:00Z,27.9396,-96.8429,2.0,31.9424,11111222 
TABS,ioos:station:wmo:42048:1,2014-01-18T09:30:00Z,27.9396,-96.8429,2.0,31.9343,11111222 
TABS,ioos:station:wmo:42048:1,2014-01-18T10:00:00Z,27.9396,-96.8429,2.0,31.9141,11111222 
TABS,ioos:station:wmo:42048:1,2014-01-18T10:30:00Z,27.9396,-96.8429,2.0,31.9156,11111222 
TABS,ioos:station:wmo:42048:1,2014-01-18T11:00:00Z,27.9396,-96.8429,2.0,31.9346,11111222 
TABS,ioos:station:wmo:42048:1,2014-01-18T11:30:00Z,27.9396,-96.8429,2.0,31.9331,11111222 
TABS,ioos:station:wmo:42048:1,2014-01-18T12:00:00Z,27.9396,-96.8429,2.0,31.9609,11111222 
TABS,ioos:station:wmo:42048:1,2014-01-18T12:30:00Z,27.9396,-96.8429,2.0,32.0152,11111222 
TABS,ioos:station:wmo:42048:1,2014-01-18T13:00:00Z,27.9396,-96.8429,2.0,32.0725,11111222 
TABS,ioos:station:wmo:42048:1,2014-01-18T13:30:00Z,27.9396,-96.8429,2.0,32.1149,11111222 
TABS,ioos:station:wmo:42048:1,2014-01-18T14:00:00Z,27.9396,-96.8429,2.0,32.1354,11111222 
TABS,ioos:station:wmo:42048:1,2014-01-18T14:30:00Z,27.9396,-96.8429,2.0,32.1656,11111222 
TABS,ioos:station:wmo:42048:1,2014-01-18T15:00:00Z,27.9396,-96.8429,2.0,32.175,11111222 
TABS,ioos:station:wmo:42048:1,2014-01-18T15:30:00Z,27.9396,-96.8429,2.0,32.1674,11111222 
TABS,ioos:station:wmo:42048:1,2014-01-18T16:00:00Z,27.9396,-96.8429,2.0,32.162,11111222 
TABS,ioos:station:wmo:42048:1,2014-01-18T16:30:00Z,27.9396,-96.8429,2.0,32.1444,11111222 
TABS,ioos:station:wmo:42048:1,2014-01-18T17:00:00Z,27.9396,-96.8429,2.0,32.1076,11111222 
TABS,ioos:station:wmo:42048:1,2014-01-18T17:30:00Z,27.9396,-96.8429,2.0,32.0932,11111222 
TABS,ioos:station:wmo:42048:1,2014-01-18T18:00:00Z,27.9396,-96.8429,2.0,32.0995,11111222 
TABS,ioos:station:wmo:42048:1,2014-01-18T18:30:00Z,27.9396,-96.8429,2.0,32.1056,11111222 
TABS,ioos:station:wmo:42048:1,2014-01-18T19:00:00Z,27.9396,-96.8429,2.0,32.1065,11111222 
TABS,ioos:station:wmo:42048:1,2014-01-18T19:30:00Z,27.9396,-96.8429,2.0,32.0924,11111222 
TABS,ioos:station:wmo:42048:1,2014-01-18T20:00:00Z,27.9396,-96.8429,2.0,32.1265,11111222 
TABS,ioos:station:wmo:42048:1,2014-01-18T20:30:00Z,27.9396,-96.8429,2.0,32.0943,11111222 
TABS,ioos:station:wmo:42048:1,2014-01-18T21:00:00Z,27.9396,-96.8429,2.0,32.1546,11111222 
TABS,ioos:station:wmo:42048:1,2014-01-18T21:30:00Z,27.9396,-96.8429,2.0,32.1388,11111222 
TABS,ioos:station:wmo:42048:1,2014-01-18T22:00:00Z,27.9396,-96.8429,2.0,32.1048,11111222 
TABS,ioos:station:wmo:42048:1,2014-01-18T22:30:00Z,27.9396,-96.8429,2.0,32.1429,11111222 
TABS,ioos:station:wmo:42048:1,2014-01-18T23:00:00Z,27.9396,-96.8429,2.0,32.0742,11111222 
TABS,ioos:station:wmo:42048:1,2014-01-18T23:30:00Z,27.9396,-96.8429,2.0,32.0287,11111222 
TABS,ioos:station:wmo:42048:1,2014-01-19T00:00:00Z,27.9396,-96.8429,2.0,32.0588,11111222 
TABS,ioos:station:wmo:42048:1,2014-01-19T00:30:00Z,27.9396,-96.8429,2.0,32.1109,11111222 
TABS,ioos:station:wmo:42048:1,2014-01-19T01:00:00Z,27.9396,-96.8429,2.0,32.1149,11111222 
TABS,ioos:station:wmo:42048:1,2014-01-19T01:30:00Z,27.9396,-96.8429,2.0,32.0804,11111222 
TABS,ioos:station:wmo:42048:1,2014-01-19T02:00:00Z,27.9396,-96.8429,2.0,32.0626,11111222 
TABS,ioos:station:wmo:42048:1,2014-01-19T02:30:00Z,27.9396,-96.8429,2.0,32.0733,11111222 
TABS,ioos:station:wmo:42048:1,2014-01-19T03:00:00Z,27.9396,-96.8429,2.0,32.0447,11111222 
TABS,ioos:station:wmo:42048:1,2014-01-19T03:30:00Z,27.9396,-96.8429,2.0,31.9525,11111222 
TABS,ioos:station:wmo:42048:1,2014-01-19T04:00:00Z,27.9396,-96.8429,2.0,31.9435,11111222 
TABS,ioos:station:wmo:42048:1,2014-01-19T04:30:00Z,27.9396,-96.8429,2.0,31.9115,11111222 
TABS,ioos:station:wmo:42048:1,2014-01-19T05:00:00Z,27.9396,-96.8429,2.0,31.8772,11111222 
TABS,ioos:station:wmo:42048:1,2014-01-19T05:30:00Z,27.9396,-96.8429,2.0,31.896,11111222 
TABS,ioos:station:wmo:42048:1,2014-01-19T06:00:00Z,27.9396,-96.8429,2.0,31.8899,11111222 
TABS,ioos:station:wmo:42048:1,2014-01-19T06:30:00Z,27.9396,-96.8429,2.0,31.9158,11111222 
TABS,ioos:station:wmo:42048:1,2014-01-19T07:00:00Z,27.9396,-96.8429,2.0,31.9059,11111222 
TABS,ioos:station:wmo:42048:1,2014-01-19T07:30:00Z,27.9396,-96.8429,2.0,31.8986,11111222 
TABS,ioos:station:wmo:42048:1,2014-01-19T08:00:00Z,27.9396,-96.8429,2.0,31.9019,11111222 
TABS,ioos:station:wmo:42048:1,2014-01-19T08:30:00Z,27.9396,-96.8429,2.0,31.9183,11111222 
TABS,ioos:station:wmo:42048:1,2014-01-19T09:00:00Z,27.9396,-96.8429,2.0,31.9344,11111222 
TABS,ioos:station:wmo:42048:1,2014-01-19T09:30:00Z,27.9396,-96.8429,2.0,31.9421,11111222 
TABS,ioos:station:wmo:42048:1,2014-01-19T10:00:00Z,27.9396,-96.8429,2.0,31.9801,11111222 
TABS,ioos:station:wmo:42048:1,2014-01-19T10:30:00Z,27.9396,-96.8429,2.0,31.9884,11111222 
TABS,ioos:station:wmo:42048:1,2014-01-19T11:00:00Z,27.9396,-96.8429,2.0,31.9446,11111222 
TABS,ioos:station:wmo:42048:1,2014-01-19T11:30:00Z,27.9396,-96.8429,2.0,31.9304,11111222 
TABS,ioos:station:wmo:42048:1,2014-01-19T12:00:00Z,27.9396,-96.8429,2.0,31.9128,11111222 
TABS,ioos:station:wmo:42048:1,2014-01-19T12:30:00Z,27.9396,-96.8429,2.0,31.9058,11111222 
TABS,ioos:station:wmo:42048:1,2014-01-19T13:00:00Z,27.9396,-96.8429,2.0,31.8921,11111222 
TABS,ioos:station:wmo:42048:1,2014-01-19T13:30:00Z,27.9396,-96.8429,2.0,31.8891,11111222 
TABS,ioos:station:wmo:42048:1,2014-01-19T14:00:00Z,27.9396,-96.8429,2.0,31.8682,11111222 
TABS,ioos:station:wmo:42048:1,2014-01-19T14:30:00Z,27.9396,-96.8429,2.0,31.8825,11111222 
TABS,ioos:station:wmo:42048:1,2014-01-19T15:00:00Z,27.9396,-96.8429,2.0,31.8952,11111222 
TABS,ioos:station:wmo:42048:1,2014-01-19T15:30:00Z,27.9396,-96.8429,2.0,31.8963,11111222 
TABS,ioos:station:wmo:42048:1,2014-01-19T16:00:00Z,27.9396,-96.8429,2.0,31.8934,11111222 
TABS,ioos:station:wmo:42048:1,2014-01-19T16:30:00Z,27.9396,-96.8429,2.0,31.888,11111222 
TABS,ioos:station:wmo:42048:1,2014-01-19T17:00:00Z,27.9396,-96.8429,2.0,31.8853,11111222 
TABS,ioos:station:wmo:42048:1,2014-01-19T17:30:00Z,27.9396,-96.8429,2.0,31.8932,11111222 
TABS,ioos:station:wmo:42048:1,2014-01-19T18:00:00Z,27.9396,-96.8429,2.0,31.9101,11111222 
TABS,ioos:station:wmo:42048:1,2014-01-19T18:30:00Z,27.9396,-96.8429,2.0,31.8748,11111222 
TABS,ioos:station:wmo:42048:1,2014-01-19T19:00:00Z,27.9396,-96.8429,2.0,31.8903,11111222 
TABS,ioos:station:wmo:42048:1,2014-01-19T19:30:00Z,27.9396,-96.8429,2.0,31.8795,11111222 
TABS,ioos:station:wmo:42048:1,2014-01-19T20:00:00Z,27.9396,-96.8429,2.0,31.8556,11111222 
TABS,ioos:station:wmo:42048:1,2014-01-19T20:30:00Z,27.9396,-96.8429,2.0,31.8566,11111222 
TABS,ioos:station:wmo:42048:1,2014-01-19T21:00:00Z,27.9396,-96.8429,2.0,31.8798,11111222 
TABS,ioos:station:wmo:42048:1,2014-01-19T21:30:00Z,27.9396,-96.8429,2.0,31.8758,11111222 
TABS,ioos:station:wmo:42048:1,2014-01-19T22:00:00Z,27.9396,-96.8429,2.0,31.8893,11111222 
TABS,ioos:station:wmo:42048:1,2014-01-19T22:30:00Z,27.9396,-96.8429,2.0,31.9,11111222 
TABS,ioos:station:wmo:42048:1,2014-01-19T23:00:00Z,27.9396,-96.8429,2.0,31.8975,11111222 
TABS,ioos:station:wmo:42048:1,2014-01-19T23:30:00Z,27.9396,-96.8429,2.0,31.9054,11111222 
TABS,ioos:station:wmo:42048:1,2014-01-20T00:00:00Z,27.9396,-96.8429,2.0,31.8995,11111222 
TABS,ioos:station:wmo:42048:1,2014-01-20T00:30:00Z,27.9396,-96.8429,2.0,31.9029,11111222 
TABS,ioos:station:wmo:42048:1,2014-01-20T01:00:00Z,27.9396,-96.8429,2.0,31.9124,11111222 
TABS,ioos:station:wmo:42048:1,2014-01-20T01:30:00Z,27.9396,-96.8429,2.0,31.9281,11111222 
TABS,ioos:station:wmo:42048:1,2014-01-20T02:00:00Z,27.9396,-96.8429,2.0,31.9185,11111222 
TABS,ioos:station:wmo:42048:1,2014-01-20T02:30:00Z,27.9396,-96.8429,2.0,31.9205,11111222 
TABS,ioos:station:wmo:42048:1,2014-01-20T03:00:00Z,27.9396,-96.8429,2.0,31.9054,11111222 
TABS,ioos:station:wmo:42048:1,2014-01-20T03:30:00Z,27.9396,-96.8429,2.0,31.912,11111222 
TABS,ioos:station:wmo:42048:1,2014-01-20T04:00:00Z,27.9396,-96.8429,2.0,31.9149,11111222 
TABS,ioos:station:wmo:42048:1,2014-01-20T04:30:00Z,27.9396,-96.8429,2.0,31.8853,11111222 
TABS,ioos:station:wmo:42048:1,2014-01-20T05:00:00Z,27.9396,-96.8429,2.0,31.8669,11111222 
TABS,ioos:station:wmo:42048:1,2014-01-20T05:30:00Z,27.9396,-96.8429,2.0,31.8588,11111222 
TABS,ioos:station:wmo:42048:1,2014-01-20T06:00:00Z,27.9396,-96.8429,2.0,31.8564,11111222 
TABS,ioos:station:wmo:42048:1,2014-01-20T06:30:00Z,27.9396,-96.8429,2.0,31.8537,11111222 
TABS,ioos:station:wmo:42048:1,2014-01-20T07:00:00Z,27.9396,-96.8429,2.0,31.8448,11111222 
TABS,ioos:station:wmo:42048:1,2014-01-20T07:30:00Z,27.9396,-96.8429,2.0,31.8303,11111222 
TABS,ioos:station:wmo:42048:1,2014-01-20T08:00:00Z,27.9396,-96.8429,2.0,31.8215,11111222 
TABS,ioos:station:wmo:42048:1,2014-01-20T08:30:00Z,27.9396,-96.8429,2.0,31.8031,11111222 
TABS,ioos:station:wmo:42048:1,2014-01-20T09:00:00Z,27.9396,-96.8429,2.0,31.8002,11111222 
TABS,ioos:station:wmo:42048:1,2014-01-20T09:30:00Z,27.9396,-96.8429,2.0,31.7911,11111222 
TABS,ioos:station:wmo:42048:1,2014-01-20T10:00:00Z,27.9396,-96.8429,2.0,31.7834,11111222 
TABS,ioos:station:wmo:42048:1,2014-01-20T10:30:00Z,27.9396,-96.8429,2.0,31.7785,11111222 
TABS,ioos:station:wmo:42048:1,2014-01-20T11:00:00Z,27.9396,-96.8429,2.0,31.7721,11111222 
TABS,ioos:station:wmo:42048:1,2014-01-20T11:30:00Z,27.9396,-96.8429,2.0,31.7694,11111222 
TABS,ioos:station:wmo:42048:1,2014-01-20T12:00:00Z,27.9396,-96.8429,2.0,31.7655,11111222 
TABS,ioos:station:wmo:42048:1,2014-01-20T12:30:00Z,27.9396,-96.8429,2.0,31.76,11111222 
TABS,ioos:station:wmo:42048:1,2014-01-20T13:00:00Z,27.9396,-96.8429,2.0,31.756,11111222 
TABS,ioos:station:wmo:42048:1,2014-01-20T13:30:00Z,27.9396,-96.8429,2.0,31.7525,11111222 
TABS,ioos:station:wmo:42048:1,2014-01-20T14:00:00Z,27.9396,-96.8429,2.0,31.7503,11111222 
TABS,ioos:station:wmo:42048:1,2014-01-20T14:30:00Z,27.9396,-96.8429,2.0,31.7505,11111222 
TABS,ioos:station:wmo:42048:1,2014-01-20T15:00:00Z,27.9396,-96.8429,2.0,31.7461,11111222 
TABS,ioos:station:wmo:42048:1,2014-01-20T15:30:00Z,27.9396,-96.8429,2.0,31.7458,11111222 